Location: Baix
(44.7118°N, 4.7648°E)
Time: 02:31:46
(UTC+00:00)

Cosmos 2344 - Pass Details

Date: 07 August 2020
Orbit: 1247 x 2995 km, 63.3° (Epoch: 19 September)

Event Time Altitude Azimuth Distance (km) Brightness Sun altitude
Rises 01:43:48 0° 321° (NW) 4,688 6.8 -23.4°
Reaches altitude 10° 01:46:28 10° 319° (NW) 3,855 6.3 -23.2°
Maximum altitude 01:56:14 71° 238° (WSW) 2,107 4.4 -22.2°
Drops below altitude 10° 02:09:53 10° 158° (SSE) 5,242 6.5 -20.8°
Sets 02:14:10 0° 157° (SSE) 6,450 7.0 -20.4°
